Time,TemperatureF,DewpointF,PressureIn,WindDirection,WindDirectionDegrees,WindSpeedMPH,WindSpeedGustMPH,Humidity,HourlyPrecipIn,Conditions,Clouds,dailyrainin,SoftwareType,DateUTC
2013-01-28 00:00:00,38.5,32.9,30.49,ENE,61,5.0,5.0,80,0.00,,,0.00,Wunderground v.1.15,2013-01-28 05:00:00,
2013-01-28 00:01:00,38.5,32.9,30.49,ENE,61,5.0,7.0,80,0.00,,,0.00,Wunderground v.1.15,2013-01-28 05:01:00,
2013-01-28 00:03:00,38.5,32.9,30.49,ENE,61,3.0,7.0,80,0.00,,,0.00,Wunderground v.1.15,2013-01-28 05:03:00,
2013-01-28 00:08:00,38.5,32.9,30.48,ENE,66,6.0,9.0,80,0.00,,,0.00,Wunderground v.1.15,2013-01-28 05:08:00,
2013-01-28 00:13:00,38.5,32.9,30.49,ENE,66,3.0,9.0,80,0.00,,,0.00,Wunderground v.1.15,2013-01-28 05:13:00,
2013-01-28 00:18:00,38.6,33.0,30.48,ENE,66,2.0,9.0,80,0.00,,,0.00,Wunderground v.1.15,2013-01-28 05:18:00,
2013-01-28 00:23:00,38.6,33.0,30.48,ENE,65,4.0,9.0,80,0.00,,,0.00,Wunderground v.1.15,2013-01-28 05:23:00,
2013-01-28 00:28:00,38.6,33.0,30.48,ENE,66,3.0,9.0,80,0.00,,,0.00,Wunderground v.1.15,2013-01-28 05:28:00,
2013-01-28 00:33:00,38.6,33.3,30.48,ENE,66,3.0,7.0,81,0.00,,,0.00,Wunderground v.1.15,2013-01-28 05:33:00,
2013-01-28 00:38:00,38.5,33.2,30.47,ENE,67,4.0,7.0,81,0.00,,,0.00,Wunderground v.1.15,2013-01-28 05:38:00,
2013-01-28 00:43:00,38.5,33.2,30.47,ENE,67,4.0,7.0,81,0.00,,,0.00,Wunderground v.1.15,2013-01-28 05:43:00,
2013-01-28 00:48:00,38.6,33.3,30.48,ENE,67,4.0,7.0,81,0.00,,,0.00,Wunderground v.1.15,2013-01-28 05:48:00,
2013-01-28 00:54:00,38.5,33.2,30.47,ENE,67,3.0,7.0,81,0.00,,,0.00,Wunderground v.1.15,2013-01-28 05:54:00,
2013-01-28 00:58:00,38.5,33.2,30.47,ENE,67,5.0,7.0,81,0.00,,,0.00,Wunderground v.1.15,2013-01-28 05:58:00,
2013-01-28 01:03:00,38.6,33.3,30.47,ENE,67,3.0,7.0,81,0.00,,,0.00,Wunderground v.1.15,2013-01-28 06:03:00,
2013-01-28 01:08:00,38.6,33.3,30.47,ENE,67,3.0,7.0,81,0.00,,,0.00,Wunderground v.1.15,2013-01-28 06:08:00,
2013-01-28 01:13:00,38.7,33.4,30.47,ENE,67,4.0,6.0,81,0.00,,,0.00,Wunderground v.1.15,2013-01-28 06:13:00,
2013-01-28 01:18:00,38.7,33.4,30.47,ENE,67,3.0,6.0,81,0.00,,,0.00,Wunderground v.1.15,2013-01-28 06:18:00,
2013-01-28 01:23:00,38.6,33.6,30.47,ENE,67,3.0,5.0,82,0.00,,,0.00,Wunderground v.1.15,2013-01-28 06:23:00,
2013-01-28 01:28:00,38.7,33.7,30.47,ENE,67,4.0,5.0,82,0.00,,,0.00,Wunderground v.1.15,2013-01-28 06:28:00,
2013-01-28 01:34:00,38.8,34.1,30.48,ENE,67,5.0,7.0,83,0.00,,,0.00,Wunderground v.1.15,2013-01-28 06:34:00,
2013-01-28 01:38:00,38.9,34.2,30.48,ENE,65,4.0,7.0,83,0.00,,,0.00,Wunderground v.1.15,2013-01-28 06:38:00,
2013-01-28 01:43:00,39.0,34.3,30.47,ENE,65,7.0,9.0,83,0.00,,,0.00,Wunderground v.1.15,2013-01-28 06:43:00,
2013-01-28 01:49:00,39.1,34.4,30.47,ENE,63,6.0,10.0,83,0.00,,,0.00,Wunderground v.1.15,2013-01-28 06:49:00,
2013-01-28 01:54:00,39.3,34.6,30.47,ENE,57,8.0,11.0,83,0.00,,,0.00,Wunderground v.1.15,2013-01-28 06:54:00,
2013-01-28 01:59:00,39.5,34.8,30.47,NE,46,7.0,11.0,83,0.00,,,0.00,Wunderground v.1.15,2013-01-28 06:59:00,
2013-01-28 02:04:00,39.5,34.8,30.47,NE,44,9.0,10.0,83,0.00,,,0.00,Wunderground v.1.15,2013-01-28 07:04:00,
2013-01-28 02:09:00,39.6,34.9,30.48,NE,43,6.0,10.0,83,0.00,,,0.00,Wunderground v.1.15,2013-01-28 07:09:00,
2013-01-28 02:14:00,39.7,35.0,30.48,NE,38,4.0,9.0,83,0.00,,,0.00,Wunderground v.1.15,2013-01-28 07:14:00,
2013-01-28 02:19:00,39.8,35.1,30.49,NNE,29,7.0,9.0,83,0.00,,,0.00,Wunderground v.1.15,2013-01-28 07:19:00,
2013-01-28 02:24:00,39.9,35.2,30.48,NNE,24,6.0,10.0,83,0.00,,,0.00,Wunderground v.1.15,2013-01-28 07:24:00,
2013-01-28 02:29:00,40.0,35.3,30.48,NNE,19,8.0,12.0,83,0.00,,,0.00,Wunderground v.1.15,2013-01-28 07:29:00,
2013-01-28 02:34:00,40.1,35.4,30.48,NNE,18,6.0,9.0,83,0.00,,,0.00,Wunderground v.1.15,2013-01-28 07:34:00,
2013-01-28 02:39:00,40.2,35.4,30.48,NNE,15,6.0,10.0,83,0.00,,,0.00,Wunderground v.1.15,2013-01-28 07:39:00,
2013-01-28 02:44:00,40.3,35.5,30.48,NNE,15,6.0,10.0,83,0.00,,,0.00,Wunderground v.1.15,2013-01-28 07:44:00,
2013-01-28 02:49:00,40.3,35.5,30.48,NNE,15,7.0,10.0,83,0.00,,,0.00,Wunderground v.1.15,2013-01-28 07:49:00,
2013-01-28 02:54:00,40.3,35.5,30.47,NNE,15,8.0,9.0,83,0.00,,,0.00,Wunderground v.1.15,2013-01-28 07:54:00,
2013-01-28 02:59:00,40.2,35.4,30.47,NNE,17,5.0,10.0,83,0.00,,,0.00,Wunderground v.1.15,2013-01-28 07:59:00,
2013-01-28 03:04:00,40.2,35.4,30.47,NNE,18,6.0,9.0,83,0.00,,,0.00,Wunderground v.1.15,2013-01-28 08:04:00,
2013-01-28 03:09:00,40.1,35.4,30.47,NNE,19,6.0,9.0,83,0.00,,,0.00,Wunderground v.1.15,2013-01-28 08:09:00,
2013-01-28 03:14:00,40.1,35.4,30.46,NNE,19,5.0,9.0,83,0.00,,,0.00,Wunderground v.1.15,2013-01-28 08:14:00,
2013-01-28 03:19:00,40.0,35.6,30.47,NNE,19,6.0,9.0,84,0.00,,,0.00,Wunderground v.1.15,2013-01-28 08:19:00,
2013-01-28 03:24:00,39.9,35.5,30.46,NNE,19,6.0,6.0,84,0.00,,,0.00,Wunderground v.1.15,2013-01-28 08:24:00,
2013-01-28 03:29:00,39.9,35.5,30.45,NNE,22,5.0,9.0,84,0.00,,,0.00,Wunderground v.1.15,2013-01-28 08:29:00,
2013-01-28 03:34:00,39.9,35.5,30.44,NNE,24,3.0,6.0,84,0.00,,,0.00,Wunderground v.1.15,2013-01-28 08:34:00,
2013-01-28 03:39:00,39.8,35.7,30.44,NNE,26,5.0,9.0,85,0.00,,,0.00,Wunderground v.1.15,2013-01-28 08:39:00,
2013-01-28 03:44:00,39.9,35.8,30.44,NNE,27,6.0,8.0,85,0.00,,,0.00,Wunderground v.1.15,2013-01-28 08:44:00,
2013-01-28 03:49:00,40.0,35.9,30.44,NNE,29,6.0,8.0,85,0.00,,,0.00,Wunderground v.1.15,2013-01-28 08:49:00,
2013-01-28 03:54:00,40.0,35.9,30.43,NE,34,5.0,9.0,85,0.00,,,0.00,Wunderground v.1.15,2013-01-28 08:54:00,
2013-01-28 03:59:00,40.1,36.0,30.43,NE,47,5.0,9.0,85,0.00,,,0.00,Wunderground v.1.15,2013-01-28 08:59:00,
2013-01-28 04:04:00,40.1,36.0,30.43,NE,49,7.0,9.0,85,0.00,,,0.00,Wunderground v.1.15,2013-01-28 09:04:00,
2013-01-28 04:09:00,40.2,36.1,30.43,NE,49,6.0,9.0,85,0.00,,,0.00,Wunderground v.1.15,2013-01-28 09:09:00,
2013-01-28 04:14:00,40.2,36.1,30.43,NE,50,9.0,9.0,85,0.00,,,0.00,Wunderground v.1.15,2013-01-28 09:14:00,
2013-01-28 04:19:00,40.1,36.2,30.43,NE,50,5.0,10.0,86,0.00,,,0.00,Wunderground v.1.15,2013-01-28 09:19:00,
2013-01-28 04:24:00,40.1,36.2,30.43,NE,51,6.0,10.0,86,0.00,,,0.00,Wunderground v.1.15,2013-01-28 09:24:00,
2013-01-28 04:29:00,40.2,36.3,30.43,NE,52,5.0,11.0,86,0.00,,,0.00,Wunderground v.1.15,2013-01-28 09:29:00,
2013-01-28 04:34:00,40.3,36.4,30.43,NE,51,4.0,11.0,86,0.00,,,0.00,Wunderground v.1.15,2013-01-28 09:34:00,
2013-01-28 04:39:00,40.4,36.5,30.43,NE,53,5.0,11.0,86,0.00,,,0.00,Wunderground v.1.15,2013-01-28 09:39:00,
2013-01-28 04:44:00,40.4,36.5,30.43,NE,53,7.0,11.0,86,0.00,,,0.00,Wunderground v.1.15,2013-01-28 09:44:00,
2013-01-28 04:49:00,40.5,36.6,30.43,NE,45,10.0,11.0,86,0.00,,,0.00,Wunderground v.1.15,2013-01-28 09:49:00,
2013-01-28 04:54:00,40.5,36.6,30.43,NE,41,6.0,11.0,86,0.00,,,0.00,Wunderground v.1.15,2013-01-28 09:54:00,
2013-01-28 04:59:00,40.5,36.6,30.43,NE,50,5.0,11.0,86,0.00,,,0.00,Wunderground v.1.15,2013-01-28 09:59:00,
2013-01-28 05:04:00,40.5,36.6,30.43,NE,45,9.0,11.0,86,0.00,,,0.00,Wunderground v.1.15,2013-01-28 10:04:00,
2013-01-28 05:09:00,40.5,36.9,30.43,NE,44,6.0,11.0,87,0.00,,,0.00,Wunderground v.1.15,2013-01-28 10:09:00,
2013-01-28 05:14:00,40.5,36.9,30.43,NE,40,10.0,11.0,87,0.00,,,0.00,Wunderground v.1.15,2013-01-28 10:14:00,
2013-01-28 05:19:00,40.4,37.1,30.42,NE,40,6.0,11.0,88,0.00,,,0.00,Wunderground v.1.15,2013-01-28 10:19:00,
2013-01-28 05:24:00,40.3,37.0,30.43,NE,45,8.0,12.0,88,0.00,,,0.00,Wunderground v.1.15,2013-01-28 10:24:00,
2013-01-28 05:29:00,40.2,36.9,30.43,NE,43,10.0,12.0,88,0.00,,,0.00,Wunderground v.1.15,2013-01-28 10:29:00,
2013-01-28 05:34:00,40.3,37.0,30.43,NE,42,11.0,12.0,88,0.00,,,0.00,Wunderground v.1.15,2013-01-28 10:34:00,
2013-01-28 05:39:00,40.4,37.4,30.43,NE,41,7.0,12.0,89,0.00,,,0.00,Wunderground v.1.15,2013-01-28 10:39:00,
2013-01-28 05:44:00,40.4,37.1,30.43,NE,40,11.0,12.0,88,0.00,,,0.00,Wunderground v.1.15,2013-01-28 10:44:00,
2013-01-28 05:49:00,40.5,37.2,30.43,NE,42,10.0,12.0,88,0.00,,,0.00,Wunderground v.1.15,2013-01-28 10:49:00,
2013-01-28 05:54:00,40.5,37.2,30.43,NE,43,10.0,12.0,88,0.00,,,0.00,Wunderground v.1.15,2013-01-28 10:54:00,
2013-01-28 05:59:00,40.6,37.3,30.43,NE,35,9.0,12.0,88,0.00,,,0.00,Wunderground v.1.15,2013-01-28 10:59:00,
2013-01-28 06:04:00,40.6,37.3,30.43,NE,44,9.0,12.0,88,0.00,,,0.00,Wunderground v.1.15,2013-01-28 11:04:00,
2013-01-28 06:09:00,40.6,37.3,30.43,NE,44,11.0,13.0,88,0.00,,,0.00,Wunderground v.1.15,2013-01-28 11:09:00,
2013-01-28 06:14:00,40.7,37.4,30.43,NE,38,9.0,13.0,88,0.00,,,0.00,Wunderground v.1.15,2013-01-28 11:14:00,
2013-01-28 06:19:00,40.7,37.4,30.43,NE,38,7.0,13.0,88,0.00,,,0.00,Wunderground v.1.15,2013-01-28 11:19:00,
2013-01-28 06:24:00,40.8,37.5,30.43,NE,39,9.0,12.0,88,0.00,,,0.00,Wunderground v.1.15,2013-01-28 11:24:00,
2013-01-28 06:29:00,40.9,37.6,30.44,NE,42,9.0,13.0,88,0.00,,,0.00,Wunderground v.1.15,2013-01-28 11:29:00,
2013-01-28 06:34:00,40.9,37.6,30.43,NE,39,9.0,11.0,88,0.00,,,0.00,Wunderground v.1.15,2013-01-28 11:34:00,
2013-01-28 06:39:00,41.0,37.7,30.43,NE,40,10.0,12.0,88,0.00,,,0.00,Wunderground v.1.15,2013-01-28 11:39:00,
2013-01-28 06:44:00,41.1,37.8,30.43,NE,41,8.0,10.0,88,0.00,,,0.00,Wunderground v.1.15,2013-01-28 11:44:00,
2013-01-28 06:49:00,41.1,37.8,30.43,NE,44,9.0,13.0,88,0.00,,,0.00,Wunderground v.1.15,2013-01-28 11:49:00,
2013-01-28 06:54:00,41.0,37.7,30.44,NE,46,10.0,12.0,88,0.00,,,0.00,Wunderground v.1.15,2013-01-28 11:54:00,
2013-01-28 06:59:00,41.0,37.7,30.44,NE,47,10.0,12.0,88,0.00,,,0.00,Wunderground v.1.15,2013-01-28 11:59:00,
2013-01-28 07:04:00,41.1,37.8,30.44,NE,47,8.0,14.0,88,0.00,,,0.00,Wunderground v.1.15,2013-01-28 12:04:00,
2013-01-28 07:09:00,41.1,37.8,30.43,NE,51,9.0,14.0,88,0.00,,,0.00,Wunderground v.1.15,2013-01-28 12:09:00,
2013-01-28 07:14:00,41.1,37.8,30.44,NE,47,10.0,11.0,88,0.00,,,0.00,Wunderground v.1.15,2013-01-28 12:14:00,
2013-01-28 07:19:00,41.1,37.8,30.44,NE,49,9.0,13.0,88,0.00,,,0.00,Wunderground v.1.15,2013-01-28 12:19:00,
2013-01-28 07:24:00,41.1,37.8,30.43,NE,51,11.0,12.0,88,0.00,,,0.00,Wunderground v.1.15,2013-01-28 12:24:00,
2013-01-28 07:29:00,41.1,37.8,30.43,NE,50,8.0,12.0,88,0.00,,,0.00,Wunderground v.1.15,2013-01-28 12:29:00,
2013-01-28 07:34:00,41.1,37.8,30.43,NE,52,10.0,11.0,88,0.00,,,0.00,Wunderground v.1.15,2013-01-28 12:34:00,
2013-01-28 07:39:00,41.1,37.8,30.43,NE,51,10.0,13.0,88,0.00,,,0.00,Wunderground v.1.15,2013-01-28 12:39:00,
2013-01-28 07:44:00,41.2,37.9,30.43,NE,55,9.0,11.0,88,0.00,,,0.00,Wunderground v.1.15,2013-01-28 12:44:00,
2013-01-28 07:49:00,41.3,38.0,30.43,NE,55,5.0,11.0,88,0.00,,,0.00,Wunderground v.1.15,2013-01-28 12:49:00,
2013-01-28 07:54:00,41.3,38.0,30.43,NE,50,7.0,11.0,88,0.00,,,0.00,Wunderground v.1.15,2013-01-28 12:54:00,
2013-01-28 07:59:00,41.2,37.9,30.43,NE,51,9.0,11.0,88,0.00,,,0.00,Wunderground v.1.15,2013-01-28 12:59:00,
2013-01-28 08:04:00,41.3,38.0,30.43,NE,53,9.0,12.0,88,0.00,,,0.00,Wunderground v.1.15,2013-01-28 13:04:00,
2013-01-28 08:09:00,41.4,38.1,30.43,NE,53,6.0,12.0,88,0.00,,,0.00,Wunderground v.1.15,2013-01-28 13:09:00,
2013-01-28 08:14:00,41.4,38.1,30.43,NE,54,5.0,10.0,88,0.00,,,0.00,Wunderground v.1.15,2013-01-28 13:14:00,
2013-01-28 08:19:00,41.5,38.2,30.43,ENE,57,5.0,11.0,88,0.00,,,0.00,Wunderground v.1.15,2013-01-28 13:19:00,
2013-01-28 08:24:00,41.5,38.2,30.44,NE,54,6.0,11.0,88,0.00,,,0.00,Wunderground v.1.15,2013-01-28 13:24:00,
2013-01-28 08:29:00,41.6,38.3,30.44,NE,53,6.0,11.0,88,0.00,,,0.00,Wunderground v.1.15,2013-01-28 13:29:00,
2013-01-28 08:34:00,41.6,38.3,30.44,NE,53,6.0,9.0,88,0.00,,,0.00,Wunderground v.1.15,2013-01-28 13:34:00,
2013-01-28 08:39:00,41.8,38.5,30.44,NE,52,6.0,9.0,88,0.00,,,0.00,Wunderground v.1.15,2013-01-28 13:39:00,
2013-01-28 08:44:00,41.8,38.5,30.43,NE,53,6.0,9.0,88,0.00,,,0.00,Wunderground v.1.15,2013-01-28 13:44:00,
2013-01-28 08:49:00,42.0,38.7,30.44,NE,55,5.0,9.0,88,0.00,,,0.00,Wunderground v.1.15,2013-01-28 13:49:00,
2013-01-28 08:54:00,42.0,38.7,30.43,ENE,57,10.0,10.0,88,0.00,,,0.00,Wunderground v.1.15,2013-01-28 13:54:00,
2013-01-28 08:59:00,42.1,38.8,30.44,ENE,57,5.0,10.0,88,0.00,,,0.00,Wunderground v.1.15,2013-01-28 13:59:00,
2013-01-28 09:04:00,42.4,39.1,30.44,ENE,57,7.0,10.0,88,0.00,,,0.00,Wunderground v.1.15,2013-01-28 14:04:00,
2013-01-28 09:09:00,42.4,39.1,30.43,NE,56,4.0,11.0,88,0.00,,,0.00,Wunderground v.1.15,2013-01-28 14:09:00,
2013-01-28 09:14:00,42.4,39.1,30.44,NE,55,7.0,9.0,88,0.00,,,0.00,Wunderground v.1.15,2013-01-28 14:14:00,
2013-01-28 09:19:00,42.3,39.0,30.43,NE,56,3.0,9.0,88,0.00,,,0.00,Wunderground v.1.15,2013-01-28 14:19:00,
2013-01-28 09:24:00,42.3,39.0,30.44,ENE,58,5.0,9.0,88,0.00,,,0.00,Wunderground v.1.15,2013-01-28 14:24:00,
2013-01-28 09:29:00,42.4,39.1,30.43,ENE,58,4.0,9.0,88,0.00,,,0.00,Wunderground v.1.15,2013-01-28 14:29:00,
2013-01-28 09:34:00,42.4,39.1,30.44,ENE,58,5.0,7.0,88,0.00,,,0.00,Wunderground v.1.15,2013-01-28 14:34:00,
2013-01-28 09:39:00,42.4,39.1,30.44,ENE,58,6.0,8.0,88,0.00,,,0.00,Wunderground v.1.15,2013-01-28 14:39:00,
2013-01-28 09:44:00,42.4,39.4,30.44,ENE,57,4.0,8.0,89,0.00,,,0.00,Wunderground v.1.15,2013-01-28 14:44:00,
2013-01-28 09:49:00,42.4,39.4,30.45,ENE,57,6.0,8.0,89,0.00,,,0.00,Wunderground v.1.15,2013-01-28 14:49:00,
2013-01-28 09:54:00,42.5,39.5,30.45,NE,53,7.0,7.0,89,0.00,,,0.00,Wunderground v.1.15,2013-01-28 14:54:00,
2013-01-28 09:59:00,42.5,39.5,30.46,NE,53,3.0,9.0,89,0.00,,,0.00,Wunderground v.1.15,2013-01-28 14:59:00,
2013-01-28 10:04:00,42.5,39.5,30.46,NE,49,7.0,7.0,89,0.00,,,0.00,Wunderground v.1.15,2013-01-28 15:04:00,
2013-01-28 10:09:00,42.5,39.8,30.45,NE,49,6.0,7.0,90,0.00,,,0.00,Wunderground v.1.15,2013-01-28 15:09:00,
2013-01-28 10:14:00,42.5,39.8,30.45,NE,48,6.0,7.0,90,0.00,,,0.00,Wunderground v.1.15,2013-01-28 15:14:00,
2013-01-28 10:19:00,42.4,39.7,30.46,NE,43,6.0,10.0,90,0.00,,,0.00,Wunderground v.1.15,2013-01-28 15:19:00,
2013-01-28 10:24:00,42.3,39.6,30.45,NE,43,6.0,7.0,90,0.00,,,0.00,Wunderground v.1.15,2013-01-28 15:24:00,
2013-01-28 10:29:00,42.3,39.6,30.45,NE,43,5.0,7.0,90,0.00,,,0.00,Wunderground v.1.15,2013-01-28 15:29:00,
2013-01-28 10:34:00,42.3,39.6,30.44,NE,42,7.0,7.0,90,0.00,,,0.00,Wunderground v.1.15,2013-01-28 15:34:00,
2013-01-28 10:39:00,42.3,39.6,30.44,NE,42,6.0,9.0,90,0.00,,,0.00,Wunderground v.1.15,2013-01-28 15:39:00,
2013-01-28 10:44:00,42.2,39.5,30.44,NE,42,6.0,10.0,90,0.00,,,0.00,Wunderground v.1.15,2013-01-28 15:44:00,
2013-01-28 10:49:00,42.3,39.6,30.44,NE,42,5.0,10.0,90,0.00,,,0.00,Wunderground v.1.15,2013-01-28 15:49:00,
2013-01-28 10:54:00,42.3,39.6,30.44,NE,42,5.0,7.0,90,0.00,,,0.00,Wunderground v.1.15,2013-01-28 15:54:00,
2013-01-28 10:59:00,42.3,39.6,30.44,NE,42,7.0,10.0,90,0.00,,,0.00,Wunderground v.1.15,2013-01-28 15:59:00,
2013-01-28 11:04:00,42.3,39.6,30.44,NE,42,5.0,10.0,90,0.00,,,0.00,Wunderground v.1.15,2013-01-28 16:04:00,
2013-01-28 11:09:00,42.4,39.7,30.44,NE,40,6.0,10.0,90,0.00,,,0.00,Wunderground v.1.15,2013-01-28 16:09:00,
2013-01-28 11:14:00,42.5,39.8,30.44,NE,39,9.0,11.0,90,0.00,,,0.00,Wunderground v.1.15,2013-01-28 16:14:00,
2013-01-28 11:19:00,42.5,39.8,30.43,NE,39,5.0,11.0,90,0.00,,,0.00,Wunderground v.1.15,2013-01-28 16:19:00,
2013-01-28 11:24:00,42.4,39.7,30.43,NE,38,6.0,7.0,90,0.00,,,0.00,Wunderground v.1.15,2013-01-28 16:24:00,
2013-01-28 11:29:00,42.3,39.6,30.43,NE,37,6.0,10.0,90,0.00,,,0.00,Wunderground v.1.15,2013-01-28 16:29:00,
2013-01-28 11:34:00,42.4,40.0,30.42,NE,37,8.0,10.0,91,0.00,,,0.00,Wunderground v.1.15,2013-01-28 16:34:00,
2013-01-28 11:39:00,42.4,40.0,30.41,NE,38,6.0,10.0,91,0.00,,,0.00,Wunderground v.1.15,2013-01-28 16:39:00,
2013-01-28 11:44:00,42.5,40.1,30.41,NE,39,6.0,9.0,91,0.00,,,0.00,Wunderground v.1.15,2013-01-28 16:44:00,
2013-01-28 11:49:00,42.6,40.2,30.41,NE,40,5.0,9.0,91,0.00,,,0.00,Wunderground v.1.15,2013-01-28 16:49:00,
2013-01-28 11:54:00,42.7,40.3,30.40,NE,41,5.0,8.0,91,0.00,,,0.00,Wunderground v.1.15,2013-01-28 16:54:00,
2013-01-28 11:59:00,42.7,40.3,30.40,NE,41,5.0,8.0,91,0.00,,,0.00,Wunderground v.1.15,2013-01-28 16:59:00,
2013-01-28 12:04:00,42.8,40.4,30.39,NE,42,7.0,8.0,91,0.00,,,0.00,Wunderground v.1.15,2013-01-28 17:04:00,
2013-01-28 12:09:00,42.9,40.2,30.39,NE,43,2.0,9.0,90,0.00,,,0.00,Wunderground v.1.15,2013-01-28 17:09:00,
2013-01-28 12:14:00,43.1,40.4,30.39,NE,44,6.0,7.0,90,0.00,,,0.00,Wunderground v.1.15,2013-01-28 17:14:00,
2013-01-28 12:19:00,43.3,40.6,30.39,NE,45,4.0,10.0,90,0.00,,,0.00,Wunderground v.1.15,2013-01-28 17:19:00,
2013-01-28 12:24:00,43.5,40.8,30.38,NE,46,5.0,7.0,90,0.00,,,0.00,Wunderground v.1.15,2013-01-28 17:24:00,
2013-01-28 12:29:00,43.6,40.9,30.37,NE,48,5.0,7.0,90,0.00,,,0.00,Wunderground v.1.15,2013-01-28 17:29:00,
2013-01-28 12:34:00,43.8,41.1,30.36,NE,53,2.0,7.0,90,0.00,,,0.00,Wunderground v.1.15,2013-01-28 17:34:00,
2013-01-28 12:39:00,44.0,41.0,30.35,NE,54,2.0,7.0,89,0.00,,,0.00,Wunderground v.1.15,2013-01-28 17:39:00,
2013-01-28 12:44:00,43.9,40.9,30.35,ENE,67,5.0,10.0,89,0.00,,,0.00,Wunderground v.1.15,2013-01-28 17:44:00,
2013-01-28 12:49:00,44.0,41.0,30.35,ENE,69,4.0,10.0,89,0.00,,,0.00,Wunderground v.1.15,2013-01-28 17:49:00,
2013-01-28 12:54:00,44.1,41.1,30.35,ENE,69,4.0,5.0,89,0.00,,,0.00,Wunderground v.1.15,2013-01-28 17:54:00,
2013-01-28 12:59:00,44.1,41.1,30.34,ENE,69,3.0,7.0,89,0.00,,,0.00,Wunderground v.1.15,2013-01-28 17:59:00,
2013-01-28 13:04:00,44.2,41.2,30.34,ENE,69,4.0,6.0,89,0.00,,,0.00,Wunderground v.1.15,2013-01-28 18:04:00,
2013-01-28 13:09:00,44.2,40.9,30.33,ENE,69,2.0,7.0,88,0.00,,,0.00,Wunderground v.1.15,2013-01-28 18:09:00,
2013-01-28 13:14:00,44.2,40.9,30.33,ENE,69,6.0,6.0,88,0.00,,,0.00,Wunderground v.1.15,2013-01-28 18:14:00,
2013-01-28 13:19:00,44.4,41.1,30.33,ENE,69,3.0,6.0,88,0.00,,,0.00,Wunderground v.1.15,2013-01-28 18:19:00,
2013-01-28 13:24:00,44.5,41.2,30.32,ENE,69,3.0,6.0,88,0.00,,,0.00,Wunderground v.1.15,2013-01-28 18:24:00,
2013-01-28 13:29:00,44.8,41.5,30.32,ENE,69,3.0,6.0,88,0.00,,,0.00,Wunderground v.1.15,2013-01-28 18:29:00,
2013-01-28 13:34:00,45.1,41.8,30.32,ENE,69,3.0,5.0,88,0.00,,,0.00,Wunderground v.1.15,2013-01-28 18:34:00,
2013-01-28 13:39:00,45.4,41.8,30.32,ENE,69,4.0,5.0,87,0.00,,,0.00,Wunderground v.1.15,2013-01-28 18:39:00,
2013-01-28 13:44:00,45.5,41.9,30.32,ENE,69,1.0,5.0,87,0.00,,,0.00,Wunderground v.1.15,2013-01-28 18:44:00,
2013-01-28 13:49:00,45.5,41.6,30.32,ENE,69,3.0,7.0,86,0.00,,,0.00,Wunderground v.1.15,2013-01-28 18:49:00,
2013-01-28 13:54:00,45.5,41.6,30.32,ENE,69,4.0,5.0,86,0.00,,,0.00,Wunderground v.1.15,2013-01-28 18:54:00,
2013-01-28 13:59:00,45.5,41.6,30.32,ENE,69,3.0,6.0,86,0.00,,,0.00,Wunderground v.1.15,2013-01-28 18:59:00,
2013-01-28 14:04:00,45.5,41.6,30.31,ENE,69,0.0,4.0,86,0.00,,,0.00,Wunderground v.1.15,2013-01-28 19:04:00,
2013-01-28 14:09:00,45.5,41.6,30.31,ENE,69,2.0,4.0,86,0.00,,,0.00,Wunderground v.1.15,2013-01-28 19:09:00,
2013-01-28 14:14:00,45.6,41.7,30.31,ENE,69,0.0,2.0,86,0.00,,,0.00,Wunderground v.1.15,2013-01-28 19:14:00,
2013-01-28 14:19:00,45.8,41.9,30.31,ENE,69,0.0,2.0,86,0.00,,,0.00,Wunderground v.1.15,2013-01-28 19:19:00,
2013-01-28 14:24:00,46.1,42.1,30.31,ENE,69,0.0,1.0,86,0.00,,,0.00,Wunderground v.1.15,2013-01-28 19:24:00,
2013-01-28 14:29:00,46.3,42.3,30.30,ENE,69,0.0,1.0,86,0.00,,,0.00,Wunderground v.1.15,2013-01-28 19:29:00,
2013-01-28 14:34:00,46.6,42.6,30.30,ENE,69,0.0,0.0,86,0.00,,,0.00,Wunderground v.1.15,2013-01-28 19:34:00,
2013-01-28 14:39:00,46.7,42.4,30.30,ENE,69,0.0,0.0,85,0.00,,,0.00,Wunderground v.1.15,2013-01-28 19:39:00,
2013-01-28 14:44:00,46.9,42.6,30.30,ENE,69,1.0,2.0,85,0.00,,,0.00,Wunderground v.1.15,2013-01-28 19:44:00,
2013-01-28 14:49:00,46.3,41.7,30.30,ENE,69,3.0,3.0,84,0.00,,,0.00,Wunderground v.1.15,2013-01-28 19:49:00,
2013-01-28 14:54:00,45.6,41.4,30.30,ENE,69,1.0,2.0,85,0.00,,,0.00,Wunderground v.1.15,2013-01-28 19:54:00,
2013-01-28 14:59:00,45.4,41.5,30.29,ENE,69,0.0,2.0,86,0.00,,,0.00,Wunderground v.1.15,2013-01-28 19:59:00,
2013-01-28 15:04:00,45.4,41.8,30.28,ENE,69,0.0,1.0,87,0.00,,,0.00,Wunderground v.1.15,2013-01-28 20:04:00,
2013-01-28 15:09:00,45.6,42.0,30.28,ENE,69,0.0,2.0,87,0.00,,,0.00,Wunderground v.1.15,2013-01-28 20:09:00,
2013-01-28 15:14:00,45.7,42.1,30.28,ENE,69,2.0,2.0,87,0.00,,,0.00,Wunderground v.1.15,2013-01-28 20:14:00,
2013-01-28 15:19:00,45.7,41.8,30.28,ENE,69,2.0,3.0,86,0.00,,,0.00,Wunderground v.1.15,2013-01-28 20:19:00,
2013-01-28 15:24:00,45.7,42.1,30.28,ENE,69,1.0,3.0,87,0.00,,,0.00,Wunderground v.1.15,2013-01-28 20:24:00,
2013-01-28 15:29:00,46.0,42.3,30.28,ENE,69,2.0,3.0,87,0.00,,,0.00,Wunderground v.1.15,2013-01-28 20:29:00,
2013-01-28 15:34:00,46.8,43.4,30.28,ENE,69,0.0,1.0,88,0.00,,,0.00,Wunderground v.1.15,2013-01-28 20:34:00,
2013-01-28 15:39:00,47.3,43.6,30.27,ENE,69,0.0,2.0,87,0.00,,,0.00,Wunderground v.1.15,2013-01-28 20:39:00,
2013-01-28 15:44:00,48.3,44.6,30.27,ENE,69,3.0,4.0,87,0.00,,,0.00,Wunderground v.1.15,2013-01-28 20:44:00,
2013-01-28 15:49:00,49.0,45.0,30.27,ENE,69,0.0,4.0,86,0.00,,,0.00,Wunderground v.1.15,2013-01-28 20:49:00,
2013-01-28 15:54:00,49.4,44.8,30.27,ENE,69,2.0,4.0,84,0.00,,,0.00,Wunderground v.1.15,2013-01-28 20:54:00,
2013-01-28 15:59:00,49.5,44.9,30.27,ENE,69,0.0,4.0,84,0.00,,,0.00,Wunderground v.1.15,2013-01-28 20:59:00,
2013-01-28 16:04:00,49.6,45.0,30.27,ENE,69,3.0,4.0,84,0.00,,,0.00,Wunderground v.1.15,2013-01-28 21:04:00,
2013-01-28 16:09:00,48.7,43.5,30.27,ENE,69,0.0,4.0,82,0.00,,,0.00,Wunderground v.1.15,2013-01-28 21:09:00,
2013-01-28 16:14:00,47.5,42.3,30.27,ENE,64,3.0,5.0,82,0.00,,,0.00,Wunderground v.1.15,2013-01-28 21:14:00,
2013-01-28 16:19:00,46.3,41.7,30.27,ENE,64,0.0,5.0,84,0.00,,,0.00,Wunderground v.1.15,2013-01-28 21:19:00,
2013-01-28 16:24:00,45.7,41.4,30.26,ENE,64,0.0,3.0,85,0.00,,,0.00,Wunderground v.1.15,2013-01-28 21:24:00,
2013-01-28 16:29:00,45.8,41.9,30.27,ENE,64,2.0,3.0,86,0.00,,,0.00,Wunderground v.1.15,2013-01-28 21:29:00,
2013-01-28 16:34:00,45.7,41.8,30.27,ENE,64,0.0,4.0,86,0.00,,,0.00,Wunderground v.1.15,2013-01-28 21:34:00,
2013-01-28 16:39:00,45.2,41.3,30.28,ENE,64,4.0,5.0,86,0.00,,,0.00,Wunderground v.1.15,2013-01-28 21:39:00,
2013-01-28 16:44:00,44.6,41.0,30.28,NE,43,4.0,6.0,87,0.00,,,0.00,Wunderground v.1.15,2013-01-28 21:44:00,
2013-01-28 16:49:00,44.3,41.0,30.27,NE,36,2.0,6.0,88,0.00,,,0.00,Wunderground v.1.15,2013-01-28 21:49:00,
2013-01-28 16:54:00,44.1,41.1,30.27,NNE,32,1.0,5.0,89,0.00,,,0.00,Wunderground v.1.15,2013-01-28 21:54:00,
2013-01-28 16:59:00,44.2,41.2,30.27,NNE,28,4.0,5.0,89,0.00,,,0.00,Wunderground v.1.15,2013-01-28 21:59:00,
2013-01-28 17:04:00,44.2,41.5,30.27,NNE,28,1.0,4.0,90,0.00,,,0.00,Wunderground v.1.15,2013-01-28 22:04:00,
2013-01-28 17:09:00,44.3,41.6,30.27,NNE,28,0.0,4.0,90,0.00,,,0.00,Wunderground v.1.15,2013-01-28 22:09:00,
2013-01-28 17:14:00,44.3,41.6,30.27,NNE,28,1.0,4.0,90,0.00,,,0.00,Wunderground v.1.15,2013-01-28 22:14:00,
2013-01-28 17:19:00,44.4,41.7,30.27,NNE,25,2.0,6.0,90,0.00,,,0.00,Wunderground v.1.15,2013-01-28 22:19:00,
2013-01-28 17:24:00,44.4,41.7,30.27,NNE,24,0.0,4.0,90,0.00,,,0.00,Wunderground v.1.15,2013-01-28 22:24:00,
2013-01-28 17:29:00,44.4,41.7,30.27,NNE,22,2.0,4.0,90,0.00,,,0.00,Wunderground v.1.15,2013-01-28 22:29:00,
2013-01-28 17:34:00,44.3,41.6,30.27,NNE,22,0.0,2.0,90,0.00,,,0.00,Wunderground v.1.15,2013-01-28 22:34:00,
2013-01-28 17:39:00,44.3,41.8,30.27,NNE,22,0.0,2.0,91,0.00,,,0.00,Wunderground v.1.15,2013-01-28 22:39:00,
2013-01-28 17:44:00,44.2,41.7,30.27,NNE,22,0.0,0.0,91,0.00,,,0.00,Wunderground v.1.15,2013-01-28 22:44:00,
2013-01-28 17:49:00,44.0,41.5,30.27,NNE,22,0.0,0.0,91,0.00,,,0.00,Wunderground v.1.15,2013-01-28 22:49:00,
2013-01-28 17:54:00,44.0,41.5,30.27,NNE,22,1.0,1.0,91,0.00,,,0.00,Wunderground v.1.15,2013-01-28 22:54:00,
2013-01-28 17:59:00,44.1,41.6,30.27,NNE,22,0.0,2.0,91,0.00,,,0.00,Wunderground v.1.15,2013-01-28 22:59:00,
2013-01-28 18:04:00,44.0,41.5,30.27,NNE,22,0.0,0.0,91,0.00,,,0.00,Wunderground v.1.15,2013-01-28 23:04:00,
2013-01-28 18:09:00,44.0,41.8,30.27,NNE,22,0.0,0.0,92,0.00,,,0.00,Wunderground v.1.15,2013-01-28 23:09:00,
2013-01-28 18:14:00,44.2,42.0,30.27,NNE,22,0.0,2.0,92,0.00,,,0.00,Wunderground v.1.15,2013-01-28 23:14:00,
2013-01-28 18:19:00,44.5,42.3,30.27,NNE,22,1.0,3.0,92,0.00,,,0.00,Wunderground v.1.15,2013-01-28 23:19:00,
2013-01-28 18:24:00,44.8,42.6,30.27,NNE,22,1.0,3.0,92,0.00,,,0.00,Wunderground v.1.15,2013-01-28 23:24:00,
2013-01-28 18:29:00,45.2,43.3,30.27,NNE,22,0.0,3.0,93,0.00,,,0.00,Wunderground v.1.15,2013-01-28 23:29:00,
2013-01-28 18:34:00,45.7,43.8,30.27,NNE,22,0.0,4.0,93,0.00,,,0.00,Wunderground v.1.15,2013-01-28 23:34:00,
2013-01-28 18:39:00,45.9,43.7,30.27,NNE,22,1.0,4.0,92,0.00,,,0.00,Wunderground v.1.15,2013-01-28 23:39:00,
2013-01-28 18:44:00,46.1,44.2,30.26,NNE,22,0.0,2.0,93,0.00,,,0.00,Wunderground v.1.15,2013-01-28 23:44:00,
2013-01-28 18:49:00,46.7,44.8,30.26,NNE,22,0.0,2.0,93,0.00,,,0.00,Wunderground v.1.15,2013-01-28 23:49:00,
2013-01-28 18:54:00,47.3,45.4,30.26,NNE,22,0.0,3.0,93,0.00,,,0.00,Wunderground v.1.15,2013-01-28 23:54:00,
2013-01-28 18:59:00,48.1,46.2,30.26,NNE,22,0.0,3.0,93,0.00,,,0.00,Wunderground v.1.15,2013-01-28 23:59:00,
2013-01-28 19:04:00,48.7,46.8,30.26,NNE,22,1.0,3.0,93,0.00,,,0.00,Wunderground v.1.15,2013-01-29 00:04:00,
2013-01-28 19:09:00,49.2,47.5,30.26,NNE,22,0.0,3.0,94,0.00,,,0.00,Wunderground v.1.15,2013-01-29 00:09:00,
2013-01-28 19:14:00,50.0,48.3,30.26,NNE,18,4.0,6.0,94,0.00,,,0.00,Wunderground v.1.15,2013-01-29 00:14:00,
2013-01-28 19:19:00,50.2,48.3,30.26,NNE,17,1.0,6.0,93,0.00,,,0.00,Wunderground v.1.15,2013-01-29 00:19:00,
2013-01-28 19:24:00,50.3,48.4,30.27,North,9,0.0,5.0,93,0.00,,,0.00,Wunderground v.1.15,2013-01-29 00:24:00,
2013-01-28 19:29:00,50.7,49.0,30.26,WSW,257,2.0,10.0,94,0.00,,,0.00,Wunderground v.1.15,2013-01-29 00:29:00,
2013-01-28 19:34:00,51.0,49.3,30.26,WSW,242,4.0,7.0,94,0.00,,,0.00,Wunderground v.1.15,2013-01-29 00:34:00,
2013-01-28 19:39:00,51.0,49.0,30.26,WSW,240,2.0,8.0,93,0.00,,,0.00,Wunderground v.1.15,2013-01-29 00:39:00,
2013-01-28 19:44:00,50.9,48.9,30.26,WSW,237,1.0,7.0,93,0.00,,,0.00,Wunderground v.1.15,2013-01-29 00:44:00,
2013-01-28 19:49:00,51.0,49.0,30.26,SW,236,5.0,7.0,93,0.00,,,0.00,Wunderground v.1.15,2013-01-29 00:49:00,
2013-01-28 19:54:00,51.1,49.1,30.26,SW,234,3.0,6.0,93,0.00,,,0.00,Wunderground v.1.15,2013-01-29 00:54:00,
2013-01-28 19:59:00,51.2,49.2,30.26,SW,235,6.0,7.0,93,0.00,,,0.00,Wunderground v.1.15,2013-01-29 00:59:00,
2013-01-28 20:04:00,51.5,49.8,30.26,WSW,240,2.0,11.0,94,0.00,,,0.00,Wunderground v.1.15,2013-01-29 01:04:00,
2013-01-28 20:09:00,51.9,50.2,30.26,SW,232,1.0,11.0,94,0.00,,,0.00,Wunderground v.1.15,2013-01-29 01:09:00,
2013-01-28 20:14:00,52.1,50.4,30.26,SW,232,8.0,9.0,94,0.00,,,0.00,Wunderground v.1.15,2013-01-29 01:14:00,
2013-01-28 20:19:00,52.2,50.5,30.26,WSW,238,6.0,11.0,94,0.00,,,0.00,Wunderground v.1.15,2013-01-29 01:19:00,
2013-01-28 20:24:00,52.4,50.7,30.26,SW,235,0.0,12.0,94,0.00,,,0.00,Wunderground v.1.15,2013-01-29 01:24:00,
2013-01-28 20:29:00,52.3,50.6,30.25,WSW,242,1.0,12.0,94,0.00,,,0.00,Wunderground v.1.15,2013-01-29 01:29:00,
2013-01-28 20:34:00,52.3,50.6,30.25,WSW,242,0.0,7.0,94,0.00,,,0.00,Wunderground v.1.15,2013-01-29 01:34:00,
2013-01-28 20:39:00,52.2,50.5,30.25,WSW,240,0.0,10.0,94,0.00,,,0.00,Wunderground v.1.15,2013-01-29 01:39:00,
2013-01-28 20:44:00,52.2,50.5,30.25,SW,232,4.0,8.0,94,0.00,,,0.00,Wunderground v.1.15,2013-01-29 01:44:00,
2013-01-28 20:49:00,52.1,50.4,30.25,SW,232,1.0,8.0,94,0.00,,,0.00,Wunderground v.1.15,2013-01-29 01:49:00,
2013-01-28 20:54:00,52.1,50.7,30.24,SW,230,6.0,8.0,95,0.00,,,0.00,Wunderground v.1.15,2013-01-29 01:54:00,
2013-01-28 20:59:00,52.1,50.7,30.25,SW,226,1.0,10.0,95,0.00,,,0.00,Wunderground v.1.15,2013-01-29 01:59:00,
2013-01-28 21:04:00,51.9,50.5,30.24,SW,232,6.0,9.0,95,0.00,,,0.00,Wunderground v.1.15,2013-01-29 02:04:00,
2013-01-28 21:09:00,52.0,50.6,30.24,SW,229,5.0,9.0,95,0.00,,,0.00,Wunderground v.1.15,2013-01-29 02:09:00,
2013-01-28 21:14:00,52.2,50.8,30.24,WSW,238,3.0,11.0,95,0.00,,,0.00,Wunderground v.1.15,2013-01-29 02:14:00,
2013-01-28 21:19:00,52.4,51.0,30.24,SW,235,3.0,11.0,95,0.00,,,0.00,Wunderground v.1.15,2013-01-29 02:19:00,
2013-01-28 21:24:00,52.8,51.7,30.24,WSW,237,7.0,12.0,96,0.00,,,0.00,Wunderground v.1.15,2013-01-29 02:24:00,
2013-01-28 21:29:00,53.2,52.1,30.24,WSW,243,4.0,12.0,96,0.00,,,0.00,Wunderground v.1.15,2013-01-29 02:29:00,
2013-01-28 21:34:00,53.5,52.4,30.24,WSW,246,3.0,11.0,96,0.00,,,0.00,Wunderground v.1.15,2013-01-29 02:34:00,
2013-01-28 21:40:00,53.7,52.6,30.24,WSW,250,3.0,11.0,96,0.00,,,0.00,Wunderground v.1.15,2013-01-29 02:40:00,
2013-01-28 21:45:00,54.3,53.2,30.24,WSW,244,6.0,12.0,96,0.00,,,0.00,Wunderground v.1.15,2013-01-29 02:45:00,
2013-01-28 21:50:00,54.6,53.5,30.24,SW,236,6.0,14.0,96,0.00,,,0.00,Wunderground v.1.15,2013-01-29 02:50:00,
2013-01-28 21:55:00,54.5,53.1,30.23,WSW,240,6.0,12.0,95,0.00,,,0.00,Wunderground v.1.15,2013-01-29 02:55:00,
2013-01-28 21:59:00,54.3,53.2,30.23,WSW,242,7.0,13.0,96,0.00,,,0.00,Wunderground v.1.15,2013-01-29 02:59:00,
2013-01-28 22:04:00,54.2,53.1,30.23,SW,232,5.0,13.0,96,0.00,,,0.00,Wunderground v.1.15,2013-01-29 03:04:00,
2013-01-28 22:09:00,54.3,53.2,30.23,SW,231,4.0,13.0,96,0.00,,,0.00,Wunderground v.1.15,2013-01-29 03:09:00,
2013-01-28 22:15:00,54.1,53.0,30.23,SW,235,9.0,13.0,96,0.00,,,0.00,Wunderground v.1.15,2013-01-29 03:15:00,
2013-01-28 22:20:00,54.1,53.0,30.23,WSW,247,5.0,13.0,96,0.00,,,0.00,Wunderground v.1.15,2013-01-29 03:20:00,
2013-01-28 22:25:00,54.0,52.9,30.22,WSW,238,5.0,12.0,96,0.00,,,0.00,Wunderground v.1.15,2013-01-29 03:25:00,
2013-01-28 22:30:00,54.2,53.1,30.22,WSW,254,5.0,12.0,96,0.00,,,0.00,Wunderground v.1.15,2013-01-29 03:30:00,
2013-01-28 22:35:00,54.0,52.9,30.22,SW,232,5.0,12.0,96,0.00,,,0.00,Wunderground v.1.15,2013-01-29 03:35:00,
2013-01-28 22:40:00,54.1,53.0,30.23,WSW,249,5.0,12.0,96,0.00,,,0.00,Wunderground v.1.15,2013-01-29 03:40:00,
2013-01-28 22:45:00,54.1,53.0,30.22,WSW,254,8.0,11.0,96,0.00,,,0.00,Wunderground v.1.15,2013-01-29 03:45:00,
2013-01-28 22:50:00,54.3,53.2,30.22,WSW,245,4.0,11.0,96,0.00,,,0.00,Wunderground v.1.15,2013-01-29 03:50:00,
2013-01-28 22:55:00,55.0,54.2,30.22,WSW,245,7.0,12.0,97,0.00,,,0.00,Wunderground v.1.15,2013-01-29 03:55:00,
2013-01-28 23:00:00,55.3,54.2,30.22,WSW,240,9.0,14.0,96,0.00,,,0.00,Wunderground v.1.15,2013-01-29 04:00:00,
2013-01-28 23:05:00,55.5,54.4,30.22,WSW,244,5.0,10.0,96,0.00,,,0.00,Wunderground v.1.15,2013-01-29 04:05:00,
2013-01-28 23:10:00,55.5,54.4,30.22,SW,236,3.0,12.0,96,0.00,,,0.00,Wunderground v.1.15,2013-01-29 04:10:00,
2013-01-28 23:15:00,55.4,54.3,30.23,SW,234,5.0,11.0,96,0.00,,,0.00,Wunderground v.1.15,2013-01-29 04:15:00,
2013-01-28 23:20:00,55.4,54.3,30.22,WSW,242,9.0,12.0,96,0.00,,,0.00,Wunderground v.1.15,2013-01-29 04:20:00,
2013-01-28 23:25:00,55.3,54.2,30.22,SW,233,7.0,12.0,96,0.00,,,0.00,Wunderground v.1.15,2013-01-29 04:25:00,
2013-01-28 23:30:00,55.3,54.2,30.22,SW,231,4.0,5.0,96,0.00,,,0.00,Wunderground v.1.15,2013-01-29 04:30:00,
2013-01-28 23:35:00,55.3,54.2,30.21,WSW,237,3.0,10.0,96,0.00,,,0.00,Wunderground v.1.15,2013-01-29 04:35:00,
2013-01-28 23:40:00,55.7,54.9,30.22,WSW,241,10.0,10.0,97,0.00,,,0.00,Wunderground v.1.15,2013-01-29 04:40:00,
2013-01-28 23:45:00,55.8,55.0,30.22,SW,236,3.0,13.0,97,0.00,,,0.00,Wunderground v.1.15,2013-01-29 04:45:00,
2013-01-28 23:50:00,55.7,54.6,30.21,WSW,237,5.0,6.0,96,0.00,,,0.00,Wunderground v.1.15,2013-01-29 04:50:00,
2013-01-28 23:55:00,55.8,55.0,30.21,SW,233,9.0,13.0,97,0.00,,,0.00,Wunderground v.1.15,2013-01-29 04:55:00,